Regional Weather Roundup
Issued by NWS Midland/Odessa, TX

Home | Current Version | Previous Version | Text Only | Print | Product List | Glossary On
Versions: 1 2 3 4 5 6 7 8 9 10 11 12 13 14 15 16 17 18 19 20 21 22 23 24 25 26 27 28 29 30 31 32 33 34 35 36 37 38 39 40 41 42 43 44 45 46 47 48 49 50
000
ASUS44 KMAF 291110
RWRMAF
MIDLAND AREA WEATHER ROUNDUP
NATIONAL WEATHER SERVICE MIDLAND TX
600 AM CDT FRI MAY 29 2015

...IN SOUTHWEST TEXAS AND SOUTHEAST NEW MEXICO...

CITY           SKY/WX    TMP DP  RH WIND       PRES   REMARKS
ALPINE         PTCLDY    61  55  80 SW10      30.08F
ANDREWS        FAIR      56  56  98 N5        29.99R
ARTESIA        CLEAR     54  54 100 NE12      30.01S
BIG SPRING     CLOUDY    61  58  89 CALM      29.99S
CARLSBAD       CLEAR     55  51  86 SW5       29.96R
DRYDEN           N/A     65  62  90 VRB5      29.95S
FORT STOCKTON  CLEAR     60  57  89 S8        29.95R
GUAD PASS      CLEAR     65  32  29 SW12      30.06S
HOBBS          PTCLDY    57  57 100 CALM      30.01F
MARFA          CLEAR     48  45  87 N7        30.09S
MIDLAND AIRPK  CLEAR     60  57  89 NE5       29.98R
MIDLAND INTL   CLEAR     59  55  87 N5        29.95R
ODESSA         CLEAR     60  53  77 SE3       29.96R
PECOS          CLEAR     54  52  94 CALM      29.93S
PRESIDIO       FAIR      74  58  57 N8        29.95R
SEMINOLE       PTCLDY    55  53  92 NE3       30.00S
SNYDER         CLEAR     59  58  96 CALM      29.99R
WINK           CLEAR     53  51  93 N7        29.92S
$$
...OTHER STATIONS IN TEXAS...

CITY           SKY/WX    TMP DP  RH WIND       PRES   REMARKS
ABILENE        CLOUDY    63  61  93 W5        29.98R
AMARILLO       CLOUDY    58  52  80 NW12      30.02F
AUSTIN         LGT RAIN  64  64 100 S10       29.86F
BROWNSVILLE    CLOUDY    80  77  90 S5        29.93R
CORPUS CHRISTI TSTM      67  65  93 N15       30.02F
DALLAS FTW     CLOUDY    66  66 100 SE3       29.86F
DEL RIO        PTCLDY    64  62  93 SE6       29.96F
EL PASO        CLEAR     70  19  14 SW8       29.97S
HOUSTON INT    CLOUDY    77  75  93 S6        29.96S
LUBBOCK        CLOUDY    56  55  97 S5        29.99F
SAN ANGELO     CLOUDY    61  59  93 E5        29.93F
SAN ANTONIO    CLOUDY    66  62  87 W5        29.87F
WACO           CLOUDY    65  64  97 S7        29.85F
WICHITA FALLS  NOT AVBL
$$
...OTHER LOCATIONS IN NEW MEXICO...

CITY           SKY/WX    TMP DP  RH WIND       PRES   REMARKS
ALAMAGORDO     CLEAR     57  21  24 SE8       29.99R
ALBUQUERQUE    PTCLDY    60  36  40 N3        30.11S
CANNON AFB     CLEAR     53  50  90 N7        30.06R
CLOVIS         PTCLDY    50  46  87 NW3       30.04R
HOLLOMAN AFB   CLEAR     54  23  30 N5        29.98R
ROSWELL        CLEAR     53  50  89 CALM      30.01S
RUIDOSO        CLEAR     57  25  28 W7        30.19S
SANTA FE       CLEAR     51  34  52 CALM      30.17R
TRUTH OR CONSE CLEAR     64  18  17 NW9       30.06R
TUCUMCARI      CLEAR     55  50  83 CALM      30.04F
$$


USA.gov is the U.S. government's official web portal to all federal, state and local government web resources and services.